Regional Weather Roundup
Issued by NWS

Home | Current Version | Previous Version | Text Only | Print | Product List | Glossary On
Versions: 1 2 3 4 5 6 7 8 9 10 11 12 13 14 15 16 17 18 19 20 21 22 23 24 25 26 27 28 29 30 31 32 33 34 35 36 37 38 39 40 41 42 43 44 45 46 47 48 49 50
000
ASUS43 KLOT 171006
RWRIL

ILLINOIS REGIONAL WEATHER ROUNDUP
NATIONAL WEATHER SERVICE CHICAGO/ROMEOVILLE IL
500 AM CDT THU APR 17 2014

NOTE: "FAIR" INDICATES FEW OR NO CLOUDS BELOW 12,000 FEET WITH NO
SIGNIFICANT WEATHER AND/OR OBSTRUCTIONS TO VISIBILITY.

* THESE STATIONS ARE NOT UNDER NWS QUALITY CONTROL. THEY ALSO MAY NOT
  REPORT WEATHER SUCH AS PRECIPITATION OR FOG.

ILZ001-002-007-009-015-016-024-171100-
NORTHWEST ILLINOIS

CITY           SKY/WX    TMP DP  RH WIND       PRES   REMARKS
MOLINE         NOT AVBL
STERLING*      MOCLDY    43  30  61 SW5       30.05R
SAVANNA*       CLOUDY    44  30  58 S10       30.02S
$$

ILZ003-004-008-010-011-017-018-171100-
NORTH CENTRAL ILLINOIS

CITY           SKY/WX    TMP DP  RH WIND       PRES   REMARKS
ROCKFORD       CLOUDY    41  29  62 S17G24    30.06F
FREEPORT*      MOCLDY    41  33  73 S16       30.04S
ROCHELLE*      MOCLDY    39  30  71 S14       30.06S WCI  31
DE KALB*       CLOUDY    38  28  66 S20G25    30.08F WCI  28
$$

ILZ005-006-012>014-019>023-171100-
NORTHEAST ILLINOIS

CITY           SKY/WX    TMP DP  RH WIND       PRES   REMARKS
CHICAGO-OHARE  MOCLDY    43  24  47 S16       30.11F
CHICAGO-MIDWAY CLOUDY    43  26  51 S12       30.14S
AURORA         CLOUDY    42  27  55 S17G23    30.10F
LANSING*       MOCLDY    39  26  59 S8        30.17R WCI  34
WAUKEGAN       CLOUDY    40  32  73 SE9       30.10F
DUPAGE AIRPORT CLOUDY    41  27  57 S16       30.09F
KANKAKEE*      CLOUDY    37  29  72 SE7       30.16F WCI  32
WHEELING       CLOUDY    44  26  49 S13       30.13S
MORRIS*        MOCLDY    40  26  55 SE12      30.11S
NORTHERLY ISL    N/A     43  27  53 S14         N/A
$$

LMZ740>746-171100-
SOUTHERN LAKE MICHIGAN

STATION/POSITION SKY/WX   TEMP    WIND        PRES    VSBY  WAVE
                          AIR SEA DIR/SP/G                  HT/PER
                          (F)     (DEG/KT/KT) (MB)    (MI)  (FT/S)
WAUKEGAN HARBOR            40     150/ 16/ 18 1021.0F
HARRISON CRIB              42     170/ 23/ 28   N/A
BURNHAM HARBOR             43     150/ 12/ 16   N/A
CALUMET HARBOR             42     150/ 10/ 13 1021.8R
MICHIGAN CITY              41     120/ 14/ 17   N/A
$$

ILZ025>027-034>036-040-047-049-050-058-095>099-171100-
WEST-CENTRAL ILLINOIS

CITY           SKY/WX    TMP DP  RH WIND       PRES   REMARKS
QUINCY         CLEAR     45  29  53 SW12      30.10R
GALESBURG*     PTCLDY    41  32  69 S9        30.07R
MACOMB*        CLEAR     43  30  60 SW10      30.10R
JACKSONVILLE*  CLEAR     45  31  58 S10       30.12R
PITTSFIELD*    CLEAR     47  30  53 S10       30.11S
$$

ILZ028>032-037-038-041>044-048-051>054-059>061-171100-
CENTRAL ILLINOIS

CITY           SKY/WX    TMP DP  RH WIND       PRES   REMARKS
PONTIAC        MOCLDY    43  30  61 S18       30.12F
BLOOMINGTON    PTCLDY    37  29  73 S17       30.13S WCI  27
DECATUR        PTCLDY    41  30  65 S13       30.16S
PEORIA         CLEAR     42  30  62 S9        30.10R
LACON*         PTCLDY    42  31  63 S7        30.08S
LINCOLN*       PTCLDY    41  32  70 S12       30.13S
SPRINGFIELD    CLEAR     45  30  55 S17       30.13R
TAYLORVILLE    PTCLDY    41  32  70 S10       30.15S
$$

ILZ033-039-045-046-055>057-062-063-171100-
EAST-CENTRAL ILLINOIS

CITY           SKY/WX    TMP DP  RH WIND       PRES   REMARKS
CHAMPAIGN      PTCLDY    38  29  70 S12       30.17S WCI  30
RANTOUL*       PTCLDY    37  29  74 CALM      30.18S
MATTOON        PTCLDY    41  29  62 S8        30.18R
PARIS*         CLEAR     36  30  77 S3        30.21R
$$

ILZ079-100>102-171100-
SOUTHWEST ILLINOIS

CITY           SKY/WX    TMP DP  RH WIND       PRES   REMARKS
ALTON          PTCLDY    37  32  82 SE6       30.16S WCI  32
BELLEVILLE     PTCLDY    37  32  82 S2        30.17S
CAHOKIA*       PTCLDY    41  31  67 S5        30.17R
SPARTA*        CLEAR     37  30  75 SE5       30.19S WCI  34
$$

ILZ064>066-069>071-074>076-080>082-084>086-088>090-092>094-171100-
SOUTH-CENTRAL ILLINOIS

CITY           SKY/WX    TMP DP  RH WIND       PRES   REMARKS
CARBONDALE     CLEAR     35  32  88 CALM      30.20R
CAIRO*         CLEAR     46  34  62 CALM      30.22R
MARION         CLEAR     39  32  75 CALM      30.20S
MT. VERNON     CLEAR     30  19  64 CALM      30.20S
CENTRALIA*       N/A     35  30  81 CALM      30.19S
SALEM*         CLEAR     41  32  70 SE3       30.20R
METROPOLIS*    CLEAR     39  33  78 CALM      30.21S
$$

ILZ067-068-072-073-078-083-087-091-171100-
SOUTHEAST ILLINOIS

CITY           SKY/WX    TMP DP  RH WIND       PRES   REMARKS
FAIRFIELD*     CLEAR     41  34  75 CALM      30.21R
HARRISBURG*    CLEAR     39  33  78 CALM      30.22S
ROBINSON*      CLEAR     39  32  76 S7        30.22S WCI  34
CARMI*         CLEAR     41  36  81 SE6       30.21R
$$

ABBREVIATIONS USED IN REMARKS
   TC - TEMPERATURE IN CELSIUS
  WCI - WIND CHILL INDEX
   HX - HEAT INDEX
  VSB - VISIBILITY
$$




USA.gov is the U.S. government's official web portal to all federal, state and local government web resources and services.